Location: Boiro
(42.6475°N, 8.8834°W)
Time: 12:38:36
(UTC+02:00)

deb Agena D - Pass Details

Date: 08 July 2022
Orbit: 997 x 1025 km, 100.1° (Epoch: 16 August)

Event Time Altitude Azimuth Distance (km) Brightness Sun altitude
Exits shadow 01:29:23 44° 147° (SSE) 1,389 ? -22.8°
Maximum altitude 01:31:34 77° 72° (ENE) 1,056 ? -22.9°
Drops below altitude 10° 01:37:56 10° 347° (NNW) 2,826 ? -23.3°
Sets 01:40:26 0° 347° (NNW) 3,781 ? -23.4°
